Starlink 1621

operational
NORAD ID: 46127 Int'l Des: 2020-057 Owner: SPXS Country: US Constellation: starlink
LEOCIRCULARSTARLINK_TYPE

About Starlink 1621

Description loading...

Live Position

Loading 3D Globe...

Upcoming Passes

Altitude History

Altitude vs Time

uPlot chart will show altitude changes over time

Two-Line Element Set

1 46127U 20057L 25258.03020784 .00013003 00000-0 88779-3 0 9999
2 46127 53.0574 5.1791 0000930 133.7430 226.3636 15.06500628279865
Epoch: Sep 15, 2025 • Age: 18 hours

Current Status

Altitude 550.2 km
Velocity 7.59 km/s
Sub-Earth Point -13.89°S, 89.27°W
Launch Date Aug 18, 2020
Age 5 years
Type internet

Technical Details

Classification Payload
Mass 260.00 kg
Dry Mass 248.00 kg
Total Mass 260.00 kg
Length 0.20 m
Diameter 2.80 m
Span 9.00 m
Shape Box + pan
Manufacturer SPXS
Bus Type Starlink
Phase Status In Orbit
Owner/State SPXS/US

Large Constellations

Loading constellations...